FW2617 Weather Reports


time (UTC)temp
C
wind
direction
speed
KPH
gust
KPH
rain 1hr
cm
rain 24hr
cm
rain mn
cm
humidity
%
barometer
mb
20260507140904 13 359 6.4 11.3 0.00 0.03 0.00 89 1018.5
20260507140005 13 1 6.4 12.9 0.00 0.03 0.00 90 1018.2
20260507135404 13 360 6.4 12.9 0.00 0.03 0.00 90 1018.2
20260507134505 13 4 3.2 8.0 0.00 0.03 0.00 91 1018.2
20260507133604 13 8 3.2 8.0 0.00 0.03 0.00 91 1018.3
20260507132705 12 12 3.2 6.4 0.00 0.03 0.00 91 1018.4
20260507131804 12 11 3.2 6.4 0.00 0.03 0.00 91 1018.5
20260507130904 12 357 3.2 9.7 0.00 0.03 0.00 91 1018.5
20260507130004 12 350 3.2 6.4 0.00 0.03 0.00 91 1018.4
20260507125404 11 348 1.6 6.4 0.00 0.03 0.00 91 1018.4
20260507124525 11 348 0.0 4.8 0.00 0.03 0.00 90 1018.4
20260507123604 11 348 1.6 3.2 0.00 0.03 0.00 90 1018.4
20260507122705 11 348 0.0 3.2 0.00 0.03 0.00 90 1018.8
20260507121804 11 348 0.0 1.6 0.00 0.03 0.00 90 1018.8
20260507120904 11 0 0.0 0.0 0.00 0.03 0.00 89 1018.7
20260507120005 11 0 0.0 0.0 0.00 0.03 0.00 89 1018.7
20260507115404 11 0 0.0 0.0 0.00 0.03 0.00 89 1018.8
20260507114504 11 0 0.0 0.0 0.00 0.03 0.00 89 1018.6
20260507113604 11 0 0.0 0.0 0.00 0.03 0.00 89 1018.4
20260507112704 11 0 0.0 0.0 0.00 0.03 0.00 88 1018.4
20260507111825 11 0 0.0 0.0 0.00 0.03 0.00 88 1018.1
20260507110904 11 0 0.0 0.0 0.00 0.03 0.00 88 1018.0
20260507110025 11 0 0.0 0.0 0.00 0.03 0.00 88 1018.0
20260507105404 11 0 0.0 0.0 0.00 0.03 0.00 88 1017.7
20260507104505 11 0 0.0 0.0 0.00 0.03 0.00 88 1017.5
20260507103604 11 348 0.0 4.8 0.00 0.03 0.00 88 1017.1
20260507102704 11 353 3.2 8.0 0.00 0.03 0.00 88 1017.0
20260507101804 11 354 1.6 4.8 0.00 0.03 0.00 88 1016.8
20260507100904 11 358 3.2 6.4 0.00 0.03 0.00 88 1016.7
20260507100025 11 344 1.6 6.4 0.00 0.03 0.00 88 1016.6
20260507095404 11 5 3.2 9.7 0.00 0.03 0.00 88 1016.2
20260507094525 12 4 3.2 8.0 0.00 0.03 0.00 87 1016.0
20260507093604 12 9 3.2 8.0 0.00 0.03 0.00 87 1016.1
20260507092704 12 14 3.2 8.0 0.00 0.03 0.00 87 1015.9
20260507091804 12 18 3.2 8.0 0.00 0.03 0.00 87 1015.7
20260507090904 12 28 3.2 8.0 0.00 0.03 0.00 87 1015.7
20260507090005 12 39 1.6 6.4 0.00 0.03 0.00 86 1015.7
20260507085404 12 0 0.0 0.0 0.00 0.03 0.00 87 1015.9
20260507084504 12 0 0.0 0.0 0.00 0.03 0.00 86 1016.0
20260507083604 12 52 3.2 6.4 0.00 0.03 0.00 86 1015.9
20260507082704 12 35 6.4 14.5 0.00 0.03 0.00 86 1015.6
20260507081804 13 24 6.4 16.1 0.00 0.03 0.00 86 1015.3
20260507080904 13 15 4.8 11.3 0.00 0.03 0.00 86 1015.5
20260507080005 13 18 3.2 6.4 0.00 0.03 0.00 86 1015.7
20260507075404 13 19 4.8 12.9 0.00 0.03 0.00 86 1015.6
20260507074504 13 32 4.8 11.3 0.00 0.03 0.00 85 1015.5
20260507073604 13 36 4.8 11.3 0.00 0.03 0.00 85 1015.4
20260507072704 13 47 4.8 14.5 0.00 0.03 0.00 86 1015.2
20260507071825 13 41 4.8 9.7 0.00 0.03 0.00 85 1015.0
20260507070904 13 51 4.8 11.3 0.00 0.03 0.00 85 1014.8
20260507070009 13 51 4.8 12.9 0.00 0.03 0.00 85 1014.5
20260507065404 13 55 6.4 14.5 0.00 0.03 0.00 85 1014.5
20260507064504 14 58 6.4 16.1 0.00 0.03 0.00 85 1014.6
20260507063604 14 56 6.4 14.5 0.00 0.03 0.00 85 1014.6
20260507062704 14 55 6.4 14.5 0.00 0.03 0.00 85 1014.7
20260507061804 14 60 4.8 16.1 0.00 0.03 0.00 84 1014.8
20260507060904 14 58 6.4 14.5 0.00 0.03 0.00 84 1014.7
20260507060004 14 59 8.0 17.7 0.00 0.03 0.00 84 1014.8
20260507055404 14 54 8.0 17.7 0.00 0.03 0.00 85 1014.8
20260507054504 14 52 8.0 19.3 0.00 0.03 0.00 85 1014.8
20260507053604 14 57 6.4 14.5 0.00 0.03 0.00 86 1014.8
20260507052704 14 56 4.8 14.5 0.00 0.03 0.00 86 1014.8
20260507051804 14 60 4.8 14.5 0.00 0.03 0.00 86 1014.5
20260507050904 14 63 6.4 16.1 0.00 0.03 0.00 86 1014.6
20260507050005 14 62 6.4 16.1 0.00 0.03 0.00 85 1014.8
20260507045404 14 60 4.8 16.1 0.00 0.03 0.03 85 1014.9
20260507044504 14 58 4.8 14.5 0.00 0.03 0.03 85 1014.8
20260507043604 14 62 6.4 14.5 0.00 0.03 0.03 85 1014.9
20260507042704 14 64 6.4 14.5 0.00 0.03 0.03 85 1015.1
20260507041804 15 60 6.4 16.1 0.00 0.03 0.03 85 1015.0
20260507040925 15 50 6.4 16.1 0.00 0.03 0.03 85 1014.9
20260507040025 15 55 6.4 19.3 0.00 0.03 0.03 86 1015.0
20260507035404 15 51 6.4 12.9 0.00 0.03 0.03 86 1015.1
20260507034505 15 46 6.4 12.9 0.00 0.03 0.03 85 1015.1
20260507033625 15 45 6.4 12.9 0.00 0.03 0.03 85 1015.1
20260507032726 15 57 4.8 12.9 0.00 0.03 0.03 85 1015.0
20260507031825 15 41 6.4 12.9 0.00 0.03 0.03 85 1014.9
20260507030904 15 46 8.0 17.7 0.00 0.03 0.03 85 1014.9
20260507030025 15 40 8.0 17.7 0.00 0.03 0.03 85 1014.6
20260507025404 15 43 8.0 17.7 0.00 0.03 0.03 84 1014.4
20260507024504 15 48 6.4 17.7 0.00 0.03 0.03 84 1014.2
20260507023625 15 54 8.0 19.3 0.00 0.03 0.03 84 1013.9
20260507022725 15 50 6.4 16.1 0.00 0.03 0.03 84 1013.8
20260507021825 15 53 8.0 17.7 0.00 0.03 0.03 84 1013.6
20260507020904 15 57 4.8 11.3 0.00 0.03 0.03 85 1013.5
20260507020025 15 55 4.8 11.3 0.00 0.03 0.03 85 1013.3
20260507015425 15 52 4.8 8.0 0.00 0.03 0.03 85 1013.2
20260507014525 15 35 3.2 9.7 0.00 0.03 0.03 84 1012.9
20260507013604 15 34 4.8 14.5 0.00 0.03 0.03 84 1012.8
20260507012704 15 30 6.4 14.5 0.00 0.03 0.03 83 1012.5
20260507011804 15 25 6.4 12.9 0.00 0.03 0.03 83 1012.3
20260507010904 15 24 6.4 12.9 0.00 0.03 0.03 84 1012.1
20260507010004 15 26 6.4 14.5 0.00 0.03 0.03 83 1012.0
20260507005404 15 27 6.4 14.5 0.00 0.03 0.03 83 1011.9
20260507004504 15 29 6.4 14.5 0.00 0.03 0.03 83 1011.7
20260507003625 15 35 4.8 11.3 0.00 0.03 0.03 83 1011.9
20260507002705 16 37 4.8 9.7 0.00 0.03 0.03 82 1012.1
20260507001804 16 10 6.4 14.5 0.00 0.03 0.03 82 1012.0
20260507000925 16 4 6.4 14.5 0.00 0.03 0.03 82 1011.9
20260507000004 16 15 6.4 11.3 0.00 0.03 0.03 82 1011.9
20260506235425 16 18 6.4 14.5 0.00 0.03 0.03 81 1011.8
20260506234504 16 352 9.7 19.3 0.00 0.03 0.03 81 1011.6
20260506233625 16 18 8.0 16.1 0.00 0.03 0.03 79 1011.6
20260506232704 16 21 6.4 14.5 0.00 0.03 0.03 78 1011.2
20260506231804 16 25 8.0 17.7 0.00 0.03 0.03 78 1011.3
20260506230904 16 22 6.4 14.5 0.00 0.03 0.03 78 1011.3
20260506230025 16 19 8.0 16.1 0.00 0.03 0.03 78 1011.0
20260506225425 16 14 8.0 12.9 0.00 0.03 0.03 78 1011.2
20260506224525 16 4 6.4 14.5 0.00 0.03 0.03 78 1011.2
20260506223604 16 358 8.0 16.1 0.00 0.03 0.03 78 1011.2
20260506222704 16 3 8.0 17.7 0.00 0.03 0.03 78 1011.2
20260506221804 16 11 8.0 17.7 0.00 0.03 0.03 78 1011.1
20260506220904 16 359 8.0 17.7 0.00 0.03 0.03 79 1010.8
20260506220005 16 354 4.8 14.5 0.00 0.03 0.03 78 1010.9
20260506215404 16 357 6.4 16.1 0.00 0.03 0.03 78 1010.8
20260506214525 16 342 8.0 17.7 0.00 0.03 0.03 78 1010.9
20260506213604 16 343 8.0 19.3 0.00 0.03 0.03 78 1011.1
20260506212704 16 355 8.0 19.3 0.00 0.03 0.03 78 1010.9
20260506211825 16 358 8.0 17.7 0.00 0.03 0.03 78 1011.0
20260506210904 16 356 8.0 19.3 0.00 0.03 0.03 79 1011.1
20260506210004 16 352 11.3 20.9 0.00 0.03 0.03 80 1011.0
20260506205404 16 351 11.3 24.1 0.00 0.03 0.03 79 1011.0
20260506204504 16 350 11.3 19.3 0.00 0.03 0.03 80 1010.8
20260506203604 16 9 11.3 19.3 0.00 0.03 0.03 80 1011.1
20260506202704 16 2 9.7 17.7 0.00 0.03 0.03 81 1011.3
20260506201804 15 6 9.7 17.7 0.00 0.03 0.03 82 1011.5
20260506200925 15 6 9.7 17.7 0.00 0.03 0.03 83 1011.5
20260506200004 15 346 9.7 17.7 0.00 0.03 0.03 84 1011.8
20260506195425 14 343 9.7 19.3 0.00 0.03 0.03 84 1011.9
20260506194504 14 346 9.7 19.3 0.00 0.03 0.03 84 1011.8
20260506193604 13 346 11.3 19.3 0.00 0.03 0.03 85 1011.8
20260506192704 13 351 12.9 22.5 0.00 0.03 0.03 85 1011.9
20260506191804 13 333 9.7 19.3 0.00 0.03 0.03 85 1011.9
20260506190904 13 332 8.0 19.3 0.00 0.03 0.03 86 1012.0
20260506190005 13 336 9.7 17.7 0.00 0.03 0.03 86 1012.1
20260506185404 13 334 9.7 19.3 0.00 0.03 0.03 86 1012.4
20260506184504 13 343 8.0 19.3 0.00 0.03 0.03 86 1012.3
20260506183604 13 349 9.7 19.3 0.00 0.03 0.03 86 1012.1
20260506182725 13 336 8.0 19.3 0.00 0.03 0.03 86 1012.1
20260506181804 13 336 8.0 17.7 0.00 0.03 0.03 85 1012.2
20260506180904 13 355 6.4 11.3 0.00 0.03 0.03 85 1012.3
20260506180025 13 24 9.7 17.7 0.00 0.03 0.03 85 1012.2
20260506175425 13 11 9.7 19.3 0.00 0.03 0.03 85 1011.8
20260506174504 13 356 14.5 27.4 0.00 0.03 0.03 86 1011.0
20260506173625 13 360 16.1 30.6 0.00 0.03 0.03 86 1009.9
20260506172704 13 360 12.9 27.4 0.00 0.03 0.03 86 1010.1
20260506171804 13 3 11.3 24.1 0.00 0.03 0.03 86 1010.7
20260506170904 13 356 11.3 19.3 0.00 0.03 0.03 86 1011.0
20260506170004 13 7 9.7 19.3 0.00 0.03 0.03 86 1011.1
20260506165404 13 1 8.0 19.3 0.00 0.03 0.03 86 1011.3
20260506164504 13 360 6.4 14.5 0.00 0.03 0.03 86 1012.2
20260506163604 13 9 8.0 17.7 0.00 0.03 0.03 87 1012.1
20260506162704 13 10 11.3 22.5 0.00 0.03 0.03 87 1011.4
20260506161804 13 29 14.5 25.7 0.00 0.03 0.03 87 1011.1
20260506160904 13 26 14.5 24.1 0.03 0.03 0.03 88 1011.0
20260506160025 12 17 12.9 24.1 0.03 0.03 0.03 88 1011.1
20260506155404 12 16 11.3 19.3 0.03 0.03 0.03 88 1011.0
20260506154504 12 10 9.7 25.7 0.03 0.03 0.03 88 1011.2
20260506153604 12 359 8.0 16.1 0.03 0.03 0.03 88 1011.4
20260506152704 12 11 8.0 14.5 0.03 0.03 0.03 87 1011.2
20260506151804 12 357 8.0 19.3 0.03 0.03 0.03 87 1012.1
20260506150904 12 8 8.0 24.1 0.00 0.00 0.00 86 1012.0
20260506150004 12 345 9.7 24.1 0.00 0.00 0.00 85 1011.8
20260506145404 12 349 11.3 20.9 0.00 0.00 0.00 85 1012.2
20260506144504 12 333 11.3 20.9 0.00 0.00 0.00 84 1012.6
20260506143625 12 333 12.9 24.1 0.00 0.00 0.00 83 1012.9
20260506142704 12 336 11.3 22.5 0.00 0.00 0.00 83 1012.5
20260506141803 12 339 9.7 20.9 0.00 0.00 0.00 82 1011.7